| time (UTC) | temp C | wind direction | speed KPH | gust KPH | rain 1hr cm | rain 24hr cm | rain mn cm | humidity % | barometer mb |
| 20260507060523 | 10 | 0.0 | 0.0 | 0.00 | 0.00 | 0.00 | 95 | 1010.9 | |
| 20260507055541 | 10 | 0.0 | 0.0 | 0.00 | 0.00 | 0.00 | 95 | 1010.7 | |
| 20260507054519 | 10 | 0.0 | 0.0 | 0.00 | 0.00 | 0.00 | 95 | 1010.6 | |
| 20260507053557 | 10 | 0.0 | 0.0 | 0.00 | 0.00 | 0.00 | 94 | 1010.5 | |
| 20260507052515 | 10 | 0.0 | 0.0 | 0.00 | 0.00 | 0.00 | 94 | 1010.5 | |
| 20260507051534 | 10 | 0.0 | 0.0 | 0.00 | 0.00 | 0.00 | 94 | 1010.4 | |
| 20260507050532 | 10 | 0.0 | 0.0 | 0.00 | 0.00 | 0.00 | 93 | 1010.4 | |
| 20260507045530 | 10 | 0.0 | 0.0 | 0.00 | 0.00 | 0.00 | 93 | 1010.5 | |
| 20260507044528 | 10 | 0.0 | 0.0 | 0.00 | 0.00 | 0.00 | 94 | 1010.5 | |
| 20260507043526 | 11 | 0.0 | 0.0 | 0.00 | 0.00 | 0.00 | 93 | 1010.5 | |
| 20260507042524 | 11 | 0.0 | 0.0 | 0.00 | 0.00 | 0.00 | 93 | 1010.6 | |
| 20260507041602 | 11 | 239 | 0.0 | 1.6 | 0.00 | 0.00 | 0.00 | 93 | 1010.7 |
| 20260507040521 | 11 | 0.0 | 0.0 | 0.00 | 0.00 | 0.00 | 92 | 1010.7 | |
| 20260507035519 | 11 | 0.0 | 0.0 | 0.00 | 0.00 | 0.00 | 92 | 1010.9 | |
| 20260507034517 | 11 | 0.0 | 0.0 | 0.00 | 0.00 | 0.00 | 91 | 1011.1 | |
| 20260507033515 | 11 | 243 | 0.0 | 1.6 | 0.00 | 0.00 | 0.00 | 91 | 1011.1 |
| 20260507032534 | 12 | 0.0 | 0.0 | 0.00 | 0.00 | 0.00 | 91 | 1011.2 | |
| 20260507031532 | 12 | 256 | 0.0 | 1.6 | 0.00 | 0.00 | 0.00 | 91 | 1011.1 |
| 20260507030530 | 12 | 268 | 0.0 | 1.6 | 0.00 | 0.00 | 0.00 | 90 | 1011.3 |
| 20260507025528 | 12 | 256 | 0.0 | 1.6 | 0.00 | 0.00 | 0.00 | 90 | 1011.2 |
| 20260507024526 | 12 | 259 | 0.0 | 1.6 | 0.00 | 0.00 | 0.00 | 90 | 1011.3 |
| 20260507023524 | 12 | 285 | 0.0 | 1.6 | 0.00 | 0.00 | 0.00 | 90 | 1011.3 |
| 20260507022542 | 12 | 304 | 0.0 | 1.6 | 0.00 | 0.00 | 0.00 | 90 | 1011.3 |
| 20260507021520 | 12 | 311 | 0.0 | 1.6 | 0.00 | 0.00 | 0.00 | 89 | 1011.3 |
| 20260507020539 | 12 | 255 | 0.0 | 1.6 | 0.00 | 0.00 | 0.00 | 89 | 1011.4 |
| 20260507015518 | 12 | 313 | 0.0 | 3.2 | 0.00 | 0.00 | 0.00 | 89 | 1011.5 |
| 20260507014535 | 12 | 308 | 0.0 | 1.6 | 0.00 | 0.00 | 0.00 | 89 | 1011.5 |
| 20260507013533 | 12 | 295 | 0.0 | 3.2 | 0.00 | 0.00 | 0.00 | 89 | 1011.6 |
| 20260507012531 | 12 | 323 | 0.0 | 1.6 | 0.00 | 0.00 | 0.00 | 88 | 1011.6 |
| 20260507011530 | 12 | 307 | 0.0 | 1.6 | 0.00 | 0.00 | 0.00 | 88 | 1011.7 |
| 20260507010528 | 12 | 259 | 1.6 | 3.2 | 0.00 | 0.00 | 0.00 | 87 | 1011.6 |
| 20260507005526 | 13 | 259 | 0.0 | 3.2 | 0.00 | 0.00 | 0.00 | 87 | 1011.8 |
| 20260507004524 | 13 | 328 | 1.6 | 3.2 | 0.00 | 0.00 | 0.00 | 87 | 1011.7 |
| 20260507003522 | 13 | 340 | 0.0 | 1.6 | 0.00 | 0.00 | 0.00 | 87 | 1011.8 |
| 20260507002541 | 13 | 255 | 0.0 | 1.6 | 0.00 | 0.00 | 0.00 | 86 | 1011.9 |
| 20260507001519 | 13 | 242 | 0.0 | 1.6 | 0.00 | 0.00 | 0.00 | 86 | 1011.9 |
| 20260507000517 | 13 | 263 | 0.0 | 1.6 | 0.00 | 0.00 | 0.00 | 86 | 1012.0 |
| 20260506235515 | 13 | 229 | 0.0 | 3.2 | 0.00 | 0.00 | 0.00 | 86 | 1012.1 |
| 20260506234533 | 13 | 240 | 0.0 | 1.6 | 0.00 | 0.00 | 0.00 | 85 | 1012.2 |
| 20260506233532 | 13 | 321 | 0.0 | 3.2 | 0.00 | 0.00 | 0.00 | 85 | 1012.2 |
| 20260506232530 | 13 | 244 | 1.6 | 3.2 | 0.00 | 0.00 | 0.00 | 85 | 1012.1 |
| 20260506231528 | 13 | 243 | 0.0 | 3.2 | 0.00 | 0.00 | 0.00 | 85 | 1012.2 |
| 20260506230546 | 13 | 276 | 0.0 | 1.6 | 0.00 | 0.00 | 0.00 | 84 | 1012.1 |
| 20260506225524 | 13 | 265 | 0.0 | 1.6 | 0.00 | 0.00 | 0.00 | 84 | 1012.1 |
| 20260506224522 | 13 | 263 | 0.0 | 1.6 | 0.00 | 0.00 | 0.00 | 84 | 1012.1 |
| 20260506223521 | 13 | 265 | 1.6 | 3.2 | 0.00 | 0.00 | 0.00 | 84 | 1012.2 |
| 20260506222519 | 13 | 249 | 0.0 | 3.2 | 0.00 | 0.00 | 0.00 | 84 | 1012.3 |
| 20260506221517 | 14 | 274 | 0.0 | 1.6 | 0.00 | 0.00 | 0.00 | 84 | 1012.4 |
| 20260506220535 | 14 | 246 | 0.0 | 1.6 | 0.00 | 0.00 | 0.00 | 83 | 1012.5 |
| 20260506215534 | 14 | 248 | 1.6 | 3.2 | 0.00 | 0.00 | 0.00 | 83 | 1012.5 |
| 20260506214531 | 14 | 310 | 0.0 | 1.6 | 0.00 | 0.00 | 0.00 | 83 | 1012.6 |
| 20260506213530 | 14 | 282 | 1.6 | 6.4 | 0.00 | 0.00 | 0.00 | 83 | 1012.6 |
| 20260506212528 | 14 | 267 | 1.6 | 3.2 | 0.00 | 0.00 | 0.00 | 83 | 1012.6 |
| 20260506211526 | 14 | 236 | 1.6 | 3.2 | 0.00 | 0.00 | 0.00 | 82 | 1012.6 |
| 20260506210545 | 14 | 254 | 0.0 | 1.6 | 0.00 | 0.00 | 0.00 | 82 | 1012.6 |
| 20260506205528 | 15 | 239 | 1.6 | 3.2 | 0.00 | 0.00 | 0.00 | 81 | 1012.5 |
| 20260506204546 | 15 | 261 | 0.0 | 3.2 | 0.00 | 0.00 | 0.00 | 81 | 1012.4 |
| 20260506203524 | 15 | 250 | 1.6 | 3.2 | 0.00 | 0.00 | 0.00 | 81 | 1012.4 |
| 20260506202523 | 15 | 254 | 1.6 | 4.8 | 0.00 | 0.00 | 0.00 | 80 | 1012.3 |
| 20260506201520 | 15 | 208 | 1.6 | 4.8 | 0.00 | 0.00 | 0.00 | 80 | 1012.2 |
| 20260506200538 | 15 | 253 | 1.6 | 4.8 | 0.00 | 0.00 | 0.00 | 80 | 1012.2 |
| 20260506195517 | 15 | 254 | 1.6 | 3.2 | 0.00 | 0.00 | 0.00 | 79 | 1012.2 |
| 20260506194535 | 15 | 255 | 1.6 | 4.8 | 0.00 | 0.00 | 0.00 | 78 | 1012.1 |
| 20260506193533 | 15 | 237 | 1.6 | 6.4 | 0.00 | 0.00 | 0.00 | 77 | 1012.0 |
| 20260506192531 | 16 | 213 | 1.6 | 4.8 | 0.00 | 0.00 | 0.00 | 76 | 1012.0 |
| 20260506191529 | 16 | 244 | 3.2 | 6.4 | 0.00 | 0.00 | 0.00 | 75 | 1011.9 |
| 20260506190528 | 16 | 228 | 3.2 | 9.7 | 0.00 | 0.00 | 0.00 | 74 | 1011.9 |
| 20260506185546 | 17 | 231 | 1.6 | 4.8 | 0.00 | 0.00 | 0.00 | 73 | 1011.9 |
| 20260506184524 | 17 | 223 | 1.6 | 9.7 | 0.00 | 0.00 | 0.00 | 71 | 1011.9 |
| 20260506183602 | 17 | 231 | 3.2 | 6.4 | 0.00 | 0.00 | 0.00 | 69 | 1011.9 |
| 20260506182520 | 17 | 261 | 3.2 | 9.7 | 0.00 | 0.00 | 0.00 | 69 | 1011.8 |
| 20260506181519 | 17 | 270 | 3.2 | 6.4 | 0.00 | 0.00 | 0.00 | 69 | 1011.7 |
| 20260506180517 | 18 | 301 | 3.2 | 12.9 | 0.00 | 0.00 | 0.00 | 66 | 1011.7 |
| 20260506175555 | 18 | 241 | 3.2 | 9.7 | 0.00 | 0.00 | 0.00 | 66 | 1011.9 |
| 20260506174533 | 18 | 276 | 3.2 | 6.4 | 0.00 | 0.00 | 0.00 | 64 | 1012.0 |
| 20260506173612 | 18 | 334 | 3.2 | 9.7 | 0.00 | 0.00 | 0.00 | 63 | 1011.9 |
| 20260506172530 | 19 | 260 | 3.2 | 6.4 | 0.00 | 0.00 | 0.00 | 63 | 1012.1 |
| 20260506171528 | 20 | 196 | 3.2 | 14.5 | 0.00 | 0.00 | 0.00 | 61 | 1012.0 |
| 20260506170526 | 20 | 269 | 3.2 | 9.7 | 0.00 | 0.00 | 0.00 | 61 | 1012.1 |
| 20260506165524 | 20 | 222 | 3.2 | 12.9 | 0.00 | 0.00 | 0.00 | 61 | 1012.2 |
| 20260506164522 | 20 | 245 | 3.2 | 9.7 | 0.00 | 0.00 | 0.00 | 61 | 1012.2 |
| 20260506163520 | 20 | 288 | 3.2 | 12.9 | 0.00 | 0.00 | 0.00 | 61 | 1012.2 |
| 20260506162519 | 20 | 269 | 4.8 | 20.9 | 0.00 | 0.00 | 0.00 | 62 | 1012.2 |
| 20260506161537 | 19 | 317 | 6.4 | 22.5 | 0.00 | 0.00 | 0.00 | 64 | 1012.2 |
| 20260506160555 | 20 | 302 | 6.4 | 20.9 | 0.00 | 0.00 | 0.00 | 63 | 1012.3 |
| 20260506155553 | 20 | 307 | 8.0 | 24.1 | 0.00 | 0.00 | 0.00 | 62 | 1012.2 |
| 20260506154532 | 20 | 313 | 4.8 | 12.9 | 0.00 | 0.00 | 0.00 | 62 | 1012.2 |
| 20260506153530 | 20 | 300 | 6.4 | 22.5 | 0.00 | 0.00 | 0.00 | 63 | 1012.4 |
| 20260506152528 | 20 | 274 | 4.8 | 17.7 | 0.00 | 0.00 | 0.00 | 64 | 1012.5 |
| 20260506151526 | 20 | 208 | 3.2 | 9.7 | 0.00 | 0.00 | 0.00 | 64 | 1012.6 |
| 20260506150604 | 20 | 318 | 8.0 | 24.1 | 0.00 | 0.00 | 0.00 | 64 | 1012.5 |
| 20260506145542 | 20 | 312 | 8.0 | 20.9 | 0.00 | 0.00 | 0.00 | 65 | 1012.8 |
| 20260506144521 | 20 | 315 | 6.4 | 22.5 | 0.00 | 0.00 | 0.00 | 65 | 1012.9 |
| 20260506143538 | 20 | 233 | 3.2 | 9.7 | 0.00 | 0.00 | 0.00 | 64 | 1013.1 |
| 20260506142517 | 19 | 296 | 9.7 | 20.9 | 0.00 | 0.00 | 0.00 | 67 | 1013.1 |
| 20260506141535 | 19 | 330 | 8.0 | 24.1 | 0.00 | 0.00 | 0.00 | 67 | 1013.0 |
| 20260506140533 | 19 | 306 | 6.4 | 17.7 | 0.00 | 0.00 | 0.00 | 67 | 1013.2 |
| 20260506135531 | 20 | 329 | 4.8 | 14.5 | 0.00 | 0.00 | 0.00 | 65 | 1013.3 |
| 20260506134529 | 20 | 315 | 4.8 | 17.7 | 0.00 | 0.00 | 0.00 | 65 | 1013.4 |
| 20260506133548 | 20 | 166 | 4.8 | 12.9 | 0.00 | 0.00 | 0.00 | 66 | 1013.4 |
| 20260506132526 | 19 | 299 | 6.4 | 17.7 | 0.00 | 0.00 | 0.00 | 68 | 1013.7 |
| 20260506131544 | 19 | 244 | 4.8 | 12.9 | 0.00 | 0.00 | 0.00 | 70 | 1013.7 |
| 20260506130522 | 20 | 279 | 4.8 | 14.5 | 0.00 | 0.00 | 0.00 | 70 | 1013.7 |
| 20260506125520 | 18 | 322 | 6.4 | 24.1 | 0.00 | 0.00 | 0.00 | 72 | 1013.9 |
| 20260506124519 | 18 | 306 | 6.4 | 20.9 | 0.00 | 0.00 | 0.00 | 73 | 1013.9 |
| 20260506123517 | 19 | 192 | 3.2 | 9.7 | 0.00 | 0.00 | 0.00 | 69 | 1014.1 |
| 20260506122535 | 18 | 292 | 6.4 | 22.5 | 0.00 | 0.00 | 0.00 | 73 | 1014.1 |
| 20260506121533 | 17 | 277 | 4.8 | 20.9 | 0.00 | 0.00 | 0.00 | 72 | 1014.3 |
| 20260506120532 | 18 | 254 | 4.8 | 17.7 | 0.00 | 0.00 | 0.00 | 72 | 1014.3 |
| 20260506115550 | 18 | 264 | 6.4 | 17.7 | 0.00 | 0.00 | 0.00 | 69 | 1014.4 |
| 20260506114528 | 18 | 331 | 8.0 | 24.1 | 0.00 | 0.00 | 0.00 | 70 | 1014.4 |
| 20260506113526 | 18 | 330 | 4.8 | 17.7 | 0.00 | 0.00 | 0.00 | 69 | 1014.6 |
| 20260506112524 | 17 | 308 | 3.2 | 17.7 | 0.00 | 0.00 | 0.00 | 71 | 1014.6 |
| 20260506111522 | 17 | 301 | 4.8 | 14.5 | 0.00 | 0.00 | 0.00 | 73 | 1014.6 |
| 20260506110521 | 17 | 316 | 3.2 | 17.7 | 0.00 | 0.00 | 0.00 | 77 | 1014.7 |
| 20260506105519 | 16 | 313 | 8.0 | 17.7 | 0.00 | 0.00 | 0.00 | 79 | 1014.8 |
| 20260506104517 | 16 | 304 | 4.8 | 17.7 | 0.00 | 0.00 | 0.00 | 83 | 1014.8 |
| 20260506103515 | 16 | 304 | 4.8 | 12.9 | 0.00 | 0.00 | 0.00 | 84 | 1015.0 |
| 20260506102534 | 16 | 314 | 3.2 | 9.7 | 0.00 | 0.00 | 0.00 | 83 | 1015.1 |
| 20260506101552 | 16 | 267 | 4.8 | 14.5 | 0.00 | 0.00 | 0.00 | 83 | 1015.1 |
| 20260506100530 | 16 | 267 | 3.2 | 9.7 | 0.00 | 0.00 | 0.00 | 83 | 1015.0 |
| 20260506095528 | 15 | 319 | 8.0 | 20.9 | 0.00 | 0.00 | 0.00 | 85 | 1014.9 |
| 20260506094526 | 16 | 302 | 4.8 | 14.5 | 0.00 | 0.00 | 0.00 | 84 | 1014.9 |
| 20260506093525 | 15 | 330 | 8.0 | 22.5 | 0.00 | 0.00 | 0.00 | 87 | 1015.0 |
| 20260506092523 | 16 | 309 | 9.7 | 17.7 | 0.00 | 0.00 | 0.00 | 82 | 1014.8 |
| 20260506091541 | 17 | 254 | 1.6 | 6.4 | 0.00 | 0.00 | 0.00 | 73 | 1014.7 |
| 20260506090539 | 16 | 247 | 3.2 | 9.7 | 0.00 | 0.00 | 0.00 | 73 | 1014.8 |
| 20260506085517 | 17 | 234 | 1.6 | 6.4 | 0.00 | 0.00 | 0.00 | 76 | 1014.8 |
| 20260506084516 | 17 | 273 | 1.6 | 3.2 | 0.00 | 0.00 | 0.00 | 77 | 1014.8 |
| 20260506083534 | 17 | 215 | 1.6 | 3.2 | 0.00 | 0.00 | 0.00 | 76 | 1014.8 |
| 20260506082532 | 17 | 248 | 1.6 | 3.2 | 0.00 | 0.00 | 0.00 | 76 | 1015.0 |
| 20260506081530 | 16 | 247 | 1.6 | 4.8 | 0.00 | 0.00 | 0.00 | 79 | 1015.0 |
| 20260506080528 | 16 | 324 | 1.6 | 3.2 | 0.00 | 0.00 | 0.00 | 81 | 1014.9 |
| 20260506073523 | 15 | 269 | 0.0 | 1.6 | 0.00 | 0.00 | 0.00 | 83 | 1014.9 |
| 20260506072521 | 14 | 180 | 0.0 | 1.6 | 0.00 | 0.00 | 0.00 | 86 | 1015.0 |
| 20260506071520 | 13 | 0.0 | 0.0 | 0.00 | 0.00 | 0.00 | 91 | 1015.0 | |
| 20260506070518 | 12 | 225 | 1.6 | 3.2 | 0.00 | 0.00 | 0.00 | 91 | 1015.0 |
| 20260506061529 | 10 | 0.0 | 0.0 | 0.00 | 0.00 | 0.00 | 96 | 1014.8 |